Time,TemperatureF,DewpointF,PressureIn,WindDirection,WindDirectionDegrees,WindSpeedMPH,WindSpeedGustMPH,Humidity,HourlyPrecipIn,Conditions,Clouds,dailyrainin,SoftwareType,DateUTC
2013-05-05 00:00:00,57.2,41.7,30.04,East,86,0.0,1.0,56,0.00,,SCT250,0.00,VWS V14.00,2013-05-05 04:00:00,
2013-05-05 00:01:00,57.1,41.6,30.04,East,86,0.0,0.0,56,0.00,,SCT250,0.00,VWS V14.00,2013-05-05 04:01:00,
2013-05-05 00:02:00,57.1,42.0,30.04,East,86,0.0,0.0,57,0.00,,SCT250,0.00,VWS V14.00,2013-05-05 04:02:00,
2013-05-05 00:07:00,57.0,41.9,30.04,East,86,0.0,1.0,57,0.00,,SCT250,0.00,VWS V14.00,2013-05-05 04:07:00,
2013-05-05 00:12:00,56.8,42.2,30.04,East,86,3.0,3.0,58,0.00,,SCT250,0.00,VWS V14.00,2013-05-05 04:12:00,
2013-05-05 00:17:00,56.8,41.8,30.04,East,86,0.0,3.0,57,0.00,,SCT250,0.00,VWS V14.00,2013-05-05 04:17:00,
2013-05-05 00:23:00,56.8,41.8,30.04,East,86,0.0,3.0,57,0.00,,SCT250,0.00,VWS V14.00,2013-05-05 04:23:00,
2013-05-05 00:28:00,56.7,41.7,30.04,East,86,0.0,3.0,57,0.00,,SCT250,0.00,VWS V14.00,2013-05-05 04:28:00,
2013-05-05 00:30:00,59.0,41.9,30.03,East,86,0.0,6.0,53,0.00,,OVC120,0.00,VWS V14.00,2013-05-05 04:30:00,
2013-05-05 00:33:00,56.6,42.0,30.04,East,86,0.0,1.0,58,0.00,,SCT250,0.00,VWS V14.00,2013-05-05 04:33:00,
2013-05-05 00:38:00,56.5,41.5,30.04,East,86,0.0,1.0,57,0.00,,SCT250,0.00,VWS V14.00,2013-05-05 04:38:00,
2013-05-05 00:43:00,56.4,41.4,30.04,East,86,0.0,2.0,57,0.00,,SCT250,0.00,VWS V14.00,2013-05-05 04:43:00,
2013-05-05 00:48:00,56.3,41.3,30.04,East,86,0.0,2.0,57,0.00,,SCT250,0.00,VWS V14.00,2013-05-05 04:48:00,
2013-05-05 00:53:00,56.3,41.3,30.04,East,86,0.0,2.0,57,0.00,,SCT250,0.00,VWS V14.00,2013-05-05 04:53:00,
2013-05-05 00:58:00,56.2,41.2,30.04,East,86,0.0,2.0,57,0.00,,SCT250,0.00,VWS V14.00,2013-05-05 04:58:00,
2013-05-05 01:00:00,57.2,41.7,30.04,East,86,0.0,1.0,56,0.00,,OVC120,0.00,VWS V14.00,2013-05-05 05:00:00,
2013-05-05 01:03:00,56.2,41.2,30.04,East,86,0.0,2.0,57,0.00,,SCT250,0.00,VWS V14.00,2013-05-05 05:03:00,
2013-05-05 01:09:00,56.2,41.2,30.04,East,86,0.0,2.0,57,0.00,,SCT250,0.00,VWS V14.00,2013-05-05 05:09:00,
2013-05-05 01:14:00,56.0,42.3,30.04,East,86,0.0,2.0,60,0.00,,SCT250,0.00,VWS V14.00,2013-05-05 05:14:00,
2013-05-05 01:19:00,55.7,41.2,30.04,East,86,0.0,2.0,58,0.00,,SCT250,0.00,VWS V14.00,2013-05-05 05:19:00,
2013-05-05 01:24:00,55.5,41.4,30.04,East,86,0.0,2.0,59,0.00,,SCT250,0.00,VWS V14.00,2013-05-05 05:24:00,
2013-05-05 01:29:00,55.5,41.9,30.04,East,86,0.0,2.0,60,0.00,,SCT250,0.00,VWS V14.00,2013-05-05 05:29:00,
2013-05-05 01:30:00,56.6,41.6,30.04,East,86,0.0,3.0,57,0.00,,OVC120,0.00,VWS V14.00,2013-05-05 05:30:00,
2013-05-05 01:34:00,55.5,41.9,30.04,East,86,1.0,1.0,60,0.00,,SCT250,0.00,VWS V14.00,2013-05-05 05:34:00,
2013-05-05 01:39:00,55.5,41.4,30.04,East,86,0.0,1.0,59,0.00,,SCT250,0.00,VWS V14.00,2013-05-05 05:39:00,
2013-05-05 01:44:00,55.5,41.4,30.04,East,86,0.0,1.0,59,0.00,,SCT250,0.00,VWS V14.00,2013-05-05 05:44:00,
2013-05-05 01:49:00,55.5,41.4,30.04,East,86,0.0,1.0,59,0.00,,SCT250,0.00,VWS V14.00,2013-05-05 05:49:00,
2013-05-05 01:54:00,55.6,41.5,30.03,East,86,0.0,1.0,59,0.00,,SCT250,0.00,VWS V14.00,2013-05-05 05:54:00,
2013-05-05 01:59:00,55.6,41.5,30.03,East,86,0.0,1.0,59,0.00,,SCT250,0.00,VWS V14.00,2013-05-05 05:59:00,
2013-05-05 02:00:00,56.2,41.2,30.04,East,86,0.0,2.0,57,0.00,,OVC120,0.00,VWS V14.00,2013-05-05 06:00:00,
2013-05-05 02:04:00,55.7,42.0,30.03,East,86,0.0,3.0,60,0.00,,CLR,0.00,VWS V14.00,2013-05-05 06:04:00,
2013-05-05 02:09:00,55.8,41.7,30.03,East,86,0.0,5.0,59,0.00,,CLR,0.00,VWS V14.00,2013-05-05 06:09:00,
2013-05-05 02:14:00,55.8,41.3,30.03,East,84,2.0,5.0,58,0.00,,CLR,0.00,VWS V14.00,2013-05-05 06:14:00,
2013-05-05 02:19:00,55.9,41.3,30.03,East,84,0.0,5.0,58,0.00,,CLR,0.00,VWS V14.00,2013-05-05 06:19:00,
2013-05-05 02:25:00,56.0,41.5,30.03,East,84,0.0,5.0,58,0.00,,CLR,0.00,VWS V14.00,2013-05-05 06:25:00,
2013-05-05 02:30:00,55.9,41.3,30.02,East,84,0.0,5.0,58,0.00,,CLR,0.00,VWS V14.00,2013-05-05 06:30:00,
2013-05-05 02:35:00,55.8,41.7,30.02,East,84,0.0,2.0,59,0.00,,CLR,0.00,VWS V14.00,2013-05-05 06:35:00,
2013-05-05 02:40:00,55.7,41.6,30.02,East,84,0.0,2.0,59,0.00,,CLR,0.00,VWS V14.00,2013-05-05 06:40:00,
2013-05-05 02:45:00,55.6,41.5,30.02,East,84,0.0,2.0,59,0.00,,CLR,0.00,VWS V14.00,2013-05-05 06:45:00,
2013-05-05 02:50:00,55.4,41.3,30.02,East,84,0.0,3.0,59,0.00,,CLR,0.00,VWS V14.00,2013-05-05 06:50:00,
2013-05-05 02:55:00,55.4,41.3,30.02,East,84,0.0,3.0,59,0.00,,CLR,0.00,VWS V14.00,2013-05-05 06:55:00,
2013-05-05 03:00:00,55.5,41.4,30.02,East,84,0.0,0.0,59,0.00,,CLR,0.00,VWS V14.00,2013-05-05 07:00:00,
2013-05-05 03:05:00,55.5,41.4,30.02,East,84,0.0,3.0,59,0.00,,CLR,0.00,VWS V14.00,2013-05-05 07:05:00,
2013-05-05 03:10:00,55.5,41.0,30.02,East,84,0.0,3.0,58,0.00,,CLR,0.00,VWS V14.00,2013-05-05 07:10:00,
2013-05-05 03:16:00,55.6,41.1,30.02,East,84,0.0,3.0,58,0.00,,CLR,0.00,VWS V14.00,2013-05-05 07:16:00,
2013-05-05 03:21:00,55.7,40.7,30.01,East,84,0.0,3.0,57,0.00,,CLR,0.00,VWS V14.00,2013-05-05 07:21:00,
2013-05-05 03:26:00,55.8,40.8,30.01,East,84,0.0,3.0,57,0.00,,CLR,0.00,VWS V14.00,2013-05-05 07:26:00,
2013-05-05 03:30:00,55.9,41.3,30.02,East,84,0.0,5.0,58,0.00,,OVC120,0.00,VWS V14.00,2013-05-05 07:30:00,
2013-05-05 03:31:00,55.8,40.8,30.01,East,84,0.0,2.0,57,0.00,,CLR,0.00,VWS V14.00,2013-05-05 07:31:00,
2013-05-05 03:36:00,55.7,41.2,30.01,ENE,78,0.0,5.0,58,0.00,,CLR,0.00,VWS V14.00,2013-05-05 07:36:00,
2013-05-05 03:41:00,55.7,40.7,30.01,ENE,77,0.0,5.0,57,0.00,,CLR,0.00,VWS V14.00,2013-05-05 07:41:00,
2013-05-05 03:46:00,55.7,40.7,30.01,ENE,77,0.0,5.0,57,0.00,,CLR,0.00,VWS V14.00,2013-05-05 07:46:00,
2013-05-05 03:51:00,55.7,41.2,30.01,ENE,77,0.0,5.0,58,0.00,,CLR,0.00,VWS V14.00,2013-05-05 07:51:00,
2013-05-05 03:56:00,55.5,41.0,30.01,ENE,71,2.0,5.0,58,0.00,,CLR,0.00,VWS V14.00,2013-05-05 07:56:00,
2013-05-05 04:00:00,55.5,41.4,30.02,East,84,0.0,3.0,59,0.00,,OVC120,0.00,VWS V14.00,2013-05-05 08:00:00,
2013-05-05 04:01:00,55.5,41.0,30.01,NE,42,0.0,2.0,58,0.00,,CLR,0.00,VWS V14.00,2013-05-05 08:01:00,
2013-05-05 04:06:00,55.3,41.2,30.01,NE,42,0.0,3.0,59,0.00,,CLR,0.00,VWS V14.00,2013-05-05 08:06:00,
2013-05-05 04:11:00,55.2,41.1,30.01,NE,56,0.0,3.0,59,0.00,,CLR,0.00,VWS V14.00,2013-05-05 08:11:00,
2013-05-05 04:16:00,55.2,41.1,30.01,ENE,67,0.0,4.0,59,0.00,,CLR,0.00,VWS V14.00,2013-05-05 08:16:00,
2013-05-05 04:21:00,55.2,41.1,30.01,ENE,67,1.0,4.0,59,0.00,,CLR,0.00,VWS V14.00,2013-05-05 08:21:00,
2013-05-05 04:26:00,55.2,41.1,30.01,ENE,68,4.0,4.0,59,0.00,,CLR,0.00,VWS V14.00,2013-05-05 08:26:00,
2013-05-05 04:30:00,55.8,41.3,30.01,East,84,2.0,5.0,58,0.00,,OVC120,0.00,VWS V14.00,2013-05-05 08:30:00,
2013-05-05 04:31:00,55.2,41.1,30.01,ENE,67,0.0,1.0,59,0.00,,CLR,0.00,VWS V14.00,2013-05-05 08:31:00,
2013-05-05 04:37:00,55.1,41.0,30.01,ENE,69,0.0,3.0,59,0.00,,CLR,0.00,VWS V14.00,2013-05-05 08:37:00,
2013-05-05 04:42:00,54.9,40.9,30.01,ENE,65,3.0,4.0,59,0.00,,CLR,0.00,VWS V14.00,2013-05-05 08:42:00,
2013-05-05 04:47:00,54.9,41.3,30.01,ENE,65,0.0,4.0,60,0.00,,CLR,0.00,VWS V14.00,2013-05-05 08:47:00,
2013-05-05 04:52:00,54.8,41.2,30.01,ENE,65,0.0,4.0,60,0.00,,CLR,0.00,VWS V14.00,2013-05-05 08:52:00,
2013-05-05 04:57:00,54.7,41.1,30.01,ENE,65,0.0,4.0,60,0.00,,CLR,0.00,VWS V14.00,2013-05-05 08:57:00,
2013-05-05 05:00:00,55.5,41.4,30.01,NE,42,1.0,6.0,59,0.00,,OVC120,0.00,VWS V14.00,2013-05-05 09:00:00,
2013-05-05 05:02:00,54.5,41.8,30.01,ENE,65,0.0,0.0,62,0.00,,CLR,0.00,VWS V14.00,2013-05-05 09:02:00,
2013-05-05 05:07:00,54.3,40.7,30.01,ENE,65,0.0,3.0,60,0.00,,CLR,0.00,VWS V14.00,2013-05-05 09:07:00,
2013-05-05 05:12:00,54.3,41.2,30.01,ENE,65,0.0,3.0,61,0.00,,CLR,0.00,VWS V14.00,2013-05-05 09:12:00,
2013-05-05 05:17:00,54.2,41.1,30.01,ENE,65,0.0,3.0,61,0.00,,CLR,0.00,VWS V14.00,2013-05-05 09:17:00,
2013-05-05 05:22:00,54.1,41.4,30.01,ENE,65,0.0,3.0,62,0.00,,CLR,0.00,VWS V14.00,2013-05-05 09:22:00,
2013-05-05 05:27:00,54.0,41.3,30.01,ENE,65,2.0,3.0,62,0.00,,CLR,0.00,VWS V14.00,2013-05-05 09:27:00,
2013-05-05 05:30:00,55.2,41.1,30.01,ENE,67,0.0,4.0,59,0.00,,OVC120,0.00,VWS V14.00,2013-05-05 09:30:00,
2013-05-05 05:33:00,53.9,40.8,30.01,ENE,65,0.0,4.0,61,0.00,,CLR,0.00,VWS V14.00,2013-05-05 09:33:00,
2013-05-05 05:38:00,53.9,41.2,30.01,ENE,65,0.0,4.0,62,0.00,,CLR,0.00,VWS V14.00,2013-05-05 09:38:00,
2013-05-05 05:43:00,53.7,41.0,30.01,ENE,65,0.0,4.0,62,0.00,,CLR,0.00,VWS V14.00,2013-05-05 09:43:00,
2013-05-05 05:48:00,53.5,41.2,30.01,ENE,65,0.0,4.0,63,0.00,,CLR,0.00,VWS V14.00,2013-05-05 09:48:00,
2013-05-05 05:53:00,53.4,41.1,30.01,ENE,65,0.0,4.0,63,0.00,,CLR,0.00,VWS V14.00,2013-05-05 09:53:00,
2013-05-05 05:58:00,53.4,41.1,30.01,ENE,65,0.0,4.0,63,0.00,,CLR,0.00,VWS V14.00,2013-05-05 09:58:00,
2013-05-05 06:00:00,54.6,41.0,30.01,ENE,65,0.0,4.0,60,0.00,,OVC120,0.00,VWS V14.00,2013-05-05 10:00:00,
2013-05-05 06:03:00,53.3,41.0,30.01,ENE,65,0.0,0.0,63,0.00,,CLR,0.00,VWS V14.00,2013-05-05 10:03:00,
2013-05-05 06:08:00,53.2,41.0,30.02,ENE,65,1.0,1.0,63,0.00,,CLR,0.00,VWS V14.00,2013-05-05 10:08:00,
2013-05-05 06:14:00,53.0,41.2,30.02,ENE,65,0.0,3.0,64,0.00,,CLR,0.00,VWS V14.00,2013-05-05 10:14:00,
2013-05-05 06:19:00,53.0,41.2,30.02,ENE,65,0.0,3.0,64,0.00,,CLR,0.00,VWS V14.00,2013-05-05 10:19:00,
2013-05-05 06:24:00,52.8,41.4,30.02,ENE,65,0.0,3.0,65,0.00,,CLR,0.00,VWS V14.00,2013-05-05 10:24:00,
2013-05-05 06:29:00,52.8,41.4,30.02,ENE,65,0.0,3.0,65,0.00,,CLR,0.00,VWS V14.00,2013-05-05 10:29:00,
2013-05-05 06:30:00,53.9,40.8,30.01,ENE,65,2.0,3.0,61,0.00,,OVC120,0.00,VWS V14.00,2013-05-05 10:30:00,
2013-05-05 06:34:00,52.8,41.4,30.02,ENE,65,1.0,2.0,65,0.00,,CLR,0.00,VWS V14.00,2013-05-05 10:34:00,
2013-05-05 06:39:00,52.7,41.3,30.02,ENE,65,2.0,3.0,65,0.00,,CLR,0.00,VWS V14.00,2013-05-05 10:39:00,
2013-05-05 06:44:00,52.7,41.7,30.02,ENE,65,0.0,3.0,66,0.00,,CLR,0.00,VWS V14.00,2013-05-05 10:44:00,
2013-05-05 06:49:00,52.6,41.6,30.02,ENE,65,0.0,3.0,66,0.00,,CLR,0.00,VWS V14.00,2013-05-05 10:49:00,
2013-05-05 06:54:00,52.5,41.5,30.02,ENE,65,2.0,3.0,66,0.00,,CLR,0.00,VWS V14.00,2013-05-05 10:54:00,
2013-05-05 06:59:00,52.5,41.5,30.02,ENE,65,0.0,3.0,66,0.00,,CLR,0.00,VWS V14.00,2013-05-05 10:59:00,
2013-05-05 07:00:00,53.4,41.1,30.01,ENE,65,0.0,4.0,63,0.00,,OVC120,0.00,VWS V14.00,2013-05-05 11:00:00,
2013-05-05 07:04:00,52.5,41.9,30.02,ENE,65,0.0,2.0,67,0.00,,BKN230,0.00,VWS V14.00,2013-05-05 11:04:00,
2013-05-05 07:10:00,52.6,42.0,30.02,ENE,65,0.0,3.0,67,0.00,,BKN230,0.00,VWS V14.00,2013-05-05 11:10:00,
2013-05-05 07:15:00,52.8,42.2,30.02,ENE,65,3.0,3.0,67,0.00,,BKN230,0.00,VWS V14.00,2013-05-05 11:15:00,
2013-05-05 07:20:00,52.9,42.3,30.02,ENE,65,3.0,4.0,67,0.00,,BKN230,0.00,VWS V14.00,2013-05-05 11:20:00,
2013-05-05 07:25:00,53.1,42.5,30.03,ENE,63,0.0,5.0,67,0.00,,BKN230,0.00,VWS V14.00,2013-05-05 11:25:00,
2013-05-05 07:30:00,53.2,42.5,30.03,ENE,63,0.0,0.0,67,0.00,,BKN230,0.00,VWS V14.00,2013-05-05 11:30:00,
2013-05-05 07:35:00,53.3,42.6,30.03,ENE,63,1.0,3.0,67,0.00,,BKN230,0.00,VWS V14.00,2013-05-05 11:35:00,
2013-05-05 07:40:00,53.5,42.8,30.03,ENE,63,0.0,3.0,67,0.00,,BKN230,0.00,VWS V14.00,2013-05-05 11:40:00,
2013-05-05 07:45:00,53.6,42.9,30.03,ENE,63,1.0,4.0,67,0.00,,BKN230,0.00,VWS V14.00,2013-05-05 11:45:00,
2013-05-05 07:50:00,53.9,43.2,30.03,NE,51,3.0,4.0,67,0.00,,BKN230,0.00,VWS V14.00,2013-05-05 11:50:00,
2013-05-05 07:56:00,54.2,43.1,30.03,East,93,0.0,5.0,66,0.00,,BKN230,0.00,VWS V14.00,2013-05-05 11:56:00,
2013-05-05 08:00:00,52.5,41.9,30.02,ENE,65,0.0,3.0,67,0.00,,OVC120,0.00,VWS V14.00,2013-05-05 12:00:00,
2013-05-05 08:01:00,54.5,43.4,30.03,East,93,0.0,1.0,66,0.00,,BKN230,0.00,VWS V14.00,2013-05-05 12:01:00,
2013-05-05 08:06:00,54.8,43.7,30.03,NE,53,1.0,5.0,66,0.00,,BKN230,0.00,VWS V14.00,2013-05-05 12:06:00,
2013-05-05 08:11:00,55.0,43.5,30.03,NE,50,0.0,5.0,65,0.00,,BKN230,0.00,VWS V14.00,2013-05-05 12:11:00,
2013-05-05 08:16:00,55.2,43.7,30.03,NE,50,0.0,5.0,65,0.00,,BKN230,0.00,VWS V14.00,2013-05-05 12:16:00,
2013-05-05 08:21:00,55.6,43.6,30.04,East,98,1.0,5.0,64,0.00,,BKN230,0.00,VWS V14.00,2013-05-05 12:21:00,
2013-05-05 08:26:00,56.1,44.5,30.04,East,98,0.0,5.0,65,0.00,,BKN230,0.00,VWS V14.00,2013-05-05 12:26:00,
2013-05-05 08:30:00,53.2,42.5,30.03,ENE,63,0.0,5.0,67,0.00,,OVC120,0.00,VWS V14.00,2013-05-05 12:30:00,
2013-05-05 08:31:00,56.5,44.1,30.03,East,86,2.0,5.0,63,0.00,,BKN230,0.00,VWS V14.00,2013-05-05 12:31:00,
2013-05-05 08:36:00,56.8,44.8,30.04,East,91,5.0,6.0,64,0.00,,BKN230,0.00,VWS V14.00,2013-05-05 12:36:00,
2013-05-05 08:42:00,57.3,45.2,30.04,East,93,0.0,6.0,64,0.00,,BKN230,0.00,VWS V14.00,2013-05-05 12:42:00,
2013-05-05 08:47:00,57.7,45.2,30.04,East,92,1.0,7.0,63,0.00,,BKN230,0.00,VWS V14.00,2013-05-05 12:47:00,
2013-05-05 08:52:00,58.3,44.9,30.04,ESE,108,1.0,7.0,61,0.00,,BKN230,0.00,VWS V14.00,2013-05-05 12:52:00,
2013-05-05 08:57:00,58.9,45.5,30.04,SE,125,0.0,7.0,61,0.00,,BKN230,0.00,VWS V14.00,2013-05-05 12:57:00,
2013-05-05 09:00:00,54.4,43.3,30.03,East,92,0.0,5.0,66,0.00,,OVC120,0.00,VWS V14.00,2013-05-05 13:00:00,
2013-05-05 09:02:00,59.4,45.5,30.04,East,82,1.0,6.0,60,0.00,,BKN230,0.00,VWS V14.00,2013-05-05 13:02:00,
2013-05-05 09:07:00,59.9,46.4,30.04,SSE,160,3.0,6.0,61,0.00,,BKN230,0.00,VWS V14.00,2013-05-05 13:07:00,
2013-05-05 09:12:00,60.5,46.6,30.04,SSE,155,0.0,6.0,60,0.00,,BKN230,0.00,VWS V14.00,2013-05-05 13:12:00,
2013-05-05 09:18:00,61.1,46.2,30.04,SE,145,3.0,7.0,58,0.00,,BKN230,0.00,VWS V14.00,2013-05-05 13:18:00,
2013-05-05 09:23:00,61.1,46.2,30.04,SE,146,0.0,7.0,58,0.00,,BKN230,0.00,VWS V14.00,2013-05-05 13:23:00,
2013-05-05 09:28:00,61.5,47.5,30.04,South,172,0.0,7.0,60,0.00,,BKN230,0.00,VWS V14.00,2013-05-05 13:28:00,
2013-05-05 09:30:00,56.4,44.0,30.04,East,86,2.0,6.0,63,0.00,,OVC120,0.00,VWS V14.00,2013-05-05 13:30:00,
2013-05-05 09:33:00,62.0,46.1,30.04,SE,136,3.0,6.0,56,0.00,,BKN230,0.00,VWS V14.00,2013-05-05 13:33:00,
2013-05-05 09:38:00,62.3,46.9,30.04,SE,136,0.0,7.0,57,0.00,,BKN230,0.00,VWS V14.00,2013-05-05 13:38:00,
2013-05-05 09:43:00,62.5,46.6,30.04,SE,126,3.0,8.0,56,0.00,,BKN230,0.00,VWS V14.00,2013-05-05 13:43:00,
2013-05-05 09:48:00,62.5,47.1,30.04,SSE,148,0.0,8.0,57,0.00,,BKN230,0.00,VWS V14.00,2013-05-05 13:48:00,
2013-05-05 09:53:00,63.0,48.0,30.04,East,101,1.0,8.0,58,0.00,,BKN230,0.00,VWS V14.00,2013-05-05 13:53:00,
2013-05-05 09:58:00,63.4,47.5,30.04,ESE,117,0.0,8.0,56,0.00,,BKN230,0.00,VWS V14.00,2013-05-05 13:58:00,
2013-05-05 10:00:00,59.0,45.6,30.04,SE,145,0.0,7.0,61,0.00,,OVC120,0.00,VWS V14.00,2013-05-05 14:00:00,
2013-05-05 10:03:00,63.6,47.2,30.04,East,85,5.0,7.0,55,0.00,,BKN230,0.00,VWS V14.00,2013-05-05 14:03:00,
2013-05-05 10:09:00,63.4,47.0,30.04,East,88,0.0,7.0,55,0.00,,BKN230,0.00,VWS V14.00,2013-05-05 14:09:00,
2013-05-05 10:14:00,63.3,47.8,30.04,SSE,165,0.0,8.0,57,0.00,,BKN230,0.00,VWS V14.00,2013-05-05 14:14:00,
2013-05-05 10:19:00,63.9,47.9,30.03,SE,135,2.0,8.0,56,0.00,,BKN230,0.00,VWS V14.00,2013-05-05 14:19:00,
2013-05-05 10:24:00,64.3,48.3,30.03,ESE,111,2.0,8.0,56,0.00,,BKN230,0.00,VWS V14.00,2013-05-05 14:24:00,
2013-05-05 10:29:00,64.2,48.2,30.03,SSE,149,6.0,8.0,56,0.00,,BKN230,0.00,VWS V14.00,2013-05-05 14:29:00,
2013-05-05 10:30:00,61.8,46.9,30.04,East,95,0.0,7.0,58,0.00,,OVC120,0.00,VWS V14.00,2013-05-05 14:30:00,
2013-05-05 10:34:00,64.3,47.3,30.04,ESE,102,0.0,7.0,54,0.00,,BKN230,0.00,VWS V14.00,2013-05-05 14:34:00,
2013-05-05 10:39:00,64.8,48.3,30.04,South,183,4.0,7.0,55,0.00,,BKN230,0.00,VWS V14.00,2013-05-05 14:39:00,
2013-05-05 10:44:00,64.9,48.4,30.04,SE,136,1.0,12.0,55,0.00,,BKN230,0.00,VWS V14.00,2013-05-05 14:44:00,
2013-05-05 10:49:00,65.4,49.3,30.04,South,173,1.0,12.0,56,0.00,,BKN230,0.00,VWS V14.00,2013-05-05 14:49:00,
2013-05-05 10:55:00,65.7,49.1,30.04,SE,127,2.0,12.0,55,0.00,,BKN230,0.00,VWS V14.00,2013-05-05 14:55:00,
2013-05-05 11:00:00,66.1,48.0,30.04,SE,130,2.0,12.0,52,0.00,,BKN230,0.00,VWS V14.00,2013-05-05 15:00:00,
2013-05-05 11:05:00,66.0,47.9,30.04,East,95,0.0,6.0,52,0.00,,OVC230,0.00,VWS V14.00,2013-05-05 15:05:00,
2013-05-05 11:10:00,66.3,48.7,30.04,ESE,119,0.0,6.0,53,0.00,,OVC230,0.00,VWS V14.00,2013-05-05 15:10:00,
2013-05-05 11:15:00,66.2,47.6,30.04,SSE,163,1.0,8.0,51,0.00,,OVC230,0.00,VWS V14.00,2013-05-05 15:15:00,
2013-05-05 11:20:00,66.4,48.8,30.03,East,96,1.0,8.0,53,0.00,,OVC230,0.00,VWS V14.00,2013-05-05 15:20:00,
2013-05-05 11:25:00,66.7,49.5,30.03,NE,52,0.0,8.0,54,0.00,,OVC230,0.00,VWS V14.00,2013-05-05 15:25:00,
2013-05-05 11:30:00,66.8,48.1,30.03,East,79,0.0,4.0,51,0.00,,OVC230,0.00,VWS V14.00,2013-05-05 15:30:00,
2013-05-05 11:35:00,66.8,48.6,30.03,East,80,5.0,8.0,52,0.00,,OVC230,0.00,VWS V14.00,2013-05-05 15:35:00,
2013-05-05 11:40:00,66.9,49.2,30.03,South,181,5.0,9.0,53,0.00,,OVC230,0.00,VWS V14.00,2013-05-05 15:40:00,
2013-05-05 11:46:00,66.8,49.6,30.03,South,174,0.0,9.0,54,0.00,,OVC230,0.00,VWS V14.00,2013-05-05 15:46:00,
2013-05-05 11:51:00,67.2,49.0,30.03,East,80,3.0,9.0,52,0.00,,OVC230,0.00,VWS V14.00,2013-05-05 15:51:00,
2013-05-05 11:56:00,67.1,48.9,30.03,ENE,69,4.0,9.0,52,0.00,,OVC230,0.00,VWS V14.00,2013-05-05 15:56:00,
2013-05-05 12:00:00,66.1,48.0,30.04,SE,132,1.0,12.0,52,0.00,,OVC120,0.00,VWS V14.00,2013-05-05 16:00:00,
2013-05-05 12:01:00,67.6,48.8,30.03,East,100,9.0,9.0,51,0.00,,OVC230,0.00,VWS V14.00,2013-05-05 16:01:00,
2013-05-05 12:06:00,67.7,48.4,30.03,SE,132,5.0,12.0,50,0.00,,OVC230,0.00,VWS V14.00,2013-05-05 16:06:00,
2013-05-05 12:11:00,67.9,49.1,30.03,SE,130,3.0,12.0,51,0.00,,OVC230,0.00,VWS V14.00,2013-05-05 16:11:00,
2013-05-05 12:16:00,68.1,49.3,30.03,SE,142,3.0,12.0,51,0.00,,OVC230,0.00,VWS V14.00,2013-05-05 16:16:00,
2013-05-05 12:21:00,68.5,49.2,30.03,ESE,110,0.0,12.0,50,0.00,,OVC230,0.00,VWS V14.00,2013-05-05 16:21:00,
2013-05-05 12:26:00,69.2,48.7,30.03,East,80,6.0,12.0,48,0.00,,OVC230,0.00,VWS V14.00,2013-05-05 16:26:00,
2013-05-05 12:30:00,66.8,49.1,30.03,ENE,78,4.0,8.0,53,0.00,,OVC120,0.00,VWS V14.00,2013-05-05 16:30:00,
2013-05-05 12:31:00,69.6,49.1,30.03,SE,131,1.0,11.0,48,0.00,,OVC230,0.00,VWS V14.00,2013-05-05 16:31:00,
2013-05-05 12:36:00,69.8,48.7,30.03,ESE,113,9.0,12.0,47,0.00,,OVC230,0.00,VWS V14.00,2013-05-05 16:36:00,
2013-05-05 12:41:00,70.1,49.0,30.02,North,5,8.0,14.0,47,0.00,,OVC230,0.00,VWS V14.00,2013-05-05 16:41:00,
2013-05-05 12:46:00,69.9,49.9,30.02,East,95,2.0,14.0,49,0.00,,OVC230,0.00,VWS V14.00,2013-05-05 16:46:00,
2013-05-05 12:52:00,70.0,49.4,30.02,SE,138,7.0,14.0,48,0.00,,OVC230,0.00,VWS V14.00,2013-05-05 16:52:00,
2013-05-05 12:57:00,69.7,49.2,30.02,ESE,103,3.0,14.0,48,0.00,,OVC230,0.00,VWS V14.00,2013-05-05 16:57:00,
2013-05-05 13:00:00,67.5,49.3,30.03,NE,36,6.0,11.0,52,0.00,,OVC120,0.00,VWS V14.00,2013-05-05 17:00:00,
2013-05-05 13:02:00,69.9,49.9,30.02,ENE,71,0.0,5.0,49,0.00,,BKN220,0.00,VWS V14.00,2013-05-05 17:02:00,
2013-05-05 13:07:00,70.2,49.0,30.02,East,86,3.0,12.0,47,0.00,,BKN220,0.00,VWS V14.00,2013-05-05 17:07:00,
2013-05-05 13:12:00,70.4,48.7,30.02,South,179,6.0,12.0,46,0.00,,BKN220,0.00,VWS V14.00,2013-05-05 17:12:00,
2013-05-05 13:17:00,71.0,49.2,30.01,East,101,5.0,12.0,46,0.00,,BKN220,0.00,VWS V14.00,2013-05-05 17:17:00,
2013-05-05 13:22:00,71.3,48.9,30.01,East,95,7.0,12.0,45,0.00,,BKN220,0.00,VWS V14.00,2013-05-05 17:22:00,
2013-05-05 13:27:00,71.4,49.0,30.01,East,95,2.0,12.0,45,0.00,,BKN220,0.00,VWS V14.00,2013-05-05 17:27:00,
2013-05-05 13:30:00,69.5,50.1,30.03,SE,129,2.0,12.0,50,0.00,,OVC120,0.00,VWS V14.00,2013-05-05 17:30:00,
2013-05-05 13:32:00,71.1,48.1,30.01,ESE,105,1.0,7.0,44,0.00,,BKN220,0.00,VWS V14.00,2013-05-05 17:32:00,
2013-05-05 13:37:00,70.9,48.5,30.01,SE,136,5.0,10.0,45,0.00,,BKN220,0.00,VWS V14.00,2013-05-05 17:37:00,
2013-05-05 13:43:00,71.0,48.0,30.01,SE,144,5.0,11.0,44,0.00,,BKN220,0.00,VWS V14.00,2013-05-05 17:43:00,
2013-05-05 13:48:00,71.0,48.0,30.01,NE,44,1.0,13.0,44,0.00,,BKN220,0.00,VWS V14.00,2013-05-05 17:48:00,
2013-05-05 13:53:00,71.4,49.0,30.01,East,92,8.0,13.0,45,0.00,,BKN220,0.00,VWS V14.00,2013-05-05 17:53:00,
2013-05-05 13:58:00,71.7,49.2,30.01,East,80,7.0,13.0,45,0.00,,BKN220,0.00,VWS V14.00,2013-05-05 17:58:00,
2013-05-05 14:00:00,69.7,49.7,30.02,ESE,107,4.0,14.0,49,0.00,,OVC120,0.00,VWS V14.00,2013-05-05 18:00:00,
2013-05-05 14:03:00,71.9,46.3,30.00,ESE,118,8.0,10.0,40,0.00,,BKN220,0.00,VWS V14.00,2013-05-05 18:03:00,
2013-05-05 14:08:00,71.8,49.9,30.00,SSE,158,1.0,10.0,46,0.00,,BKN220,0.00,VWS V14.00,2013-05-05 18:08:00,
2013-05-05 14:13:00,72.5,48.8,30.00,ENE,75,4.0,10.0,43,0.00,,BKN220,0.00,VWS V14.00,2013-05-05 18:13:00,
2013-05-05 14:18:00,72.7,48.3,30.00,ENE,71,7.0,11.0,42,0.00,,BKN220,0.00,VWS V14.00,2013-05-05 18:18:00,
2013-05-05 14:23:00,72.4,49.9,30.00,SSE,149,0.0,11.0,45,0.00,,BKN220,0.00,VWS V14.00,2013-05-05 18:23:00,
2013-05-05 14:28:00,72.9,47.8,29.99,SSE,152,0.0,11.0,41,0.00,,BKN220,0.00,VWS V14.00,2013-05-05 18:28:00,
2013-05-05 14:30:00,71.3,47.7,30.01,East,80,0.0,12.0,43,0.00,,OVC120,0.00,VWS V14.00,2013-05-05 18:30:00,
2013-05-05 14:33:00,73.4,48.3,30.00,NNE,24,5.0,6.0,41,0.00,,BKN220,0.00,VWS V14.00,2013-05-05 18:33:00,
2013-05-05 14:38:00,73.2,48.1,29.99,ESE,119,8.0,11.0,41,0.00,,BKN220,0.00,VWS V14.00,2013-05-05 18:38:00,
2013-05-05 14:44:00,72.8,47.1,29.99,East,79,5.0,11.0,40,0.00,,BKN220,0.00,VWS V14.00,2013-05-05 18:44:00,
2013-05-05 14:49:00,73.1,51.1,29.99,NE,43,5.0,11.0,46,0.00,,BKN220,0.00,VWS V14.00,2013-05-05 18:49:00,
2013-05-05 14:54:00,73.6,48.5,29.99,SE,136,8.0,11.0,41,0.00,,BKN220,0.00,VWS V14.00,2013-05-05 18:54:00,
2013-05-05 14:59:00,73.3,48.8,29.99,East,97,3.0,14.0,42,0.00,,BKN220,0.00,VWS V14.00,2013-05-05 18:59:00,
2013-05-05 15:00:00,71.8,48.7,30.01,ESE,109,5.0,13.0,44,0.00,,OVC120,0.00,VWS V14.00,2013-05-05 19:00:00,
2013-05-05 15:04:00,73.2,47.5,29.99,East,80,2.0,13.0,40,0.00,,BKN220,0.00,VWS V14.00,2013-05-05 19:04:00,
2013-05-05 15:09:00,73.1,48.7,29.99,SSE,165,1.0,13.0,42,0.00,,BKN220,0.00,VWS V14.00,2013-05-05 19:09:00,
2013-05-05 15:14:00,73.3,48.8,29.99,ENE,74,11.0,13.0,42,0.00,,BKN220,0.00,VWS V14.00,2013-05-05 19:14:00,
2013-05-05 15:19:00,73.3,48.2,29.98,ENE,59,7.0,13.0,41,0.00,,BKN220,0.00,VWS V14.00,2013-05-05 19:19:00,
2013-05-05 15:24:00,74.0,47.5,29.98,SE,128,10.0,13.0,39,0.00,,BKN220,0.00,VWS V14.00,2013-05-05 19:24:00,
2013-05-05 15:29:00,73.2,46.8,29.98,ESE,106,0.0,13.0,39,0.00,,BKN220,0.00,VWS V14.00,2013-05-05 19:29:00,
2013-05-05 15:30:00,73.0,47.9,30.00,East,96,0.0,11.0,41,0.00,,OVC120,0.00,VWS V14.00,2013-05-05 19:30:00,
2013-05-05 15:34:00,73.3,48.8,29.98,ESE,115,5.0,10.0,42,0.00,,BKN220,0.00,VWS V14.00,2013-05-05 19:34:00,
2013-05-05 15:40:00,73.3,46.2,29.98,ESE,110,1.0,10.0,38,0.00,,BKN220,0.00,VWS V14.00,2013-05-05 19:40:00,
2013-05-05 15:45:00,73.7,48.6,29.98,ESE,115,10.0,10.0,41,0.00,,BKN220,0.00,VWS V14.00,2013-05-05 19:45:00,
2013-05-05 15:50:00,74.1,47.6,29.98,ENE,59,4.0,11.0,39,0.00,,BKN220,0.00,VWS V14.00,2013-05-05 19:50:00,
2013-05-05 15:55:00,73.9,48.1,29.97,East,96,0.0,11.0,40,0.00,,BKN220,0.00,VWS V14.00,2013-05-05 19:55:00,
2013-05-05 16:00:00,74.3,48.4,29.97,ENE,59,12.0,12.0,40,0.00,,BKN220,0.00,VWS V14.00,2013-05-05 20:00:00,
2013-05-05 16:05:00,73.8,46.6,29.97,ESE,118,2.0,13.0,38,0.00,,BKN220,0.00,VWS V14.00,2013-05-05 20:05:00,
2013-05-05 16:10:00,73.4,47.0,29.97,NNE,23,7.0,13.0,39,0.00,,BKN220,0.00,VWS V14.00,2013-05-05 20:10:00,
2013-05-05 16:15:00,73.5,46.4,29.97,East,96,3.0,13.0,38,0.00,,BKN220,0.00,VWS V14.00,2013-05-05 20:15:00,
2013-05-05 16:20:00,73.6,46.5,29.97,East,82,1.0,13.0,38,0.00,,BKN220,0.00,VWS V14.00,2013-05-05 20:20:00,
2013-05-05 16:25:00,74.1,46.2,29.97,East,96,5.0,13.0,37,0.00,,BKN220,0.00,VWS V14.00,2013-05-05 20:25:00,
2013-05-05 16:30:00,74.2,44.1,29.97,NE,41,6.0,13.0,34,0.00,,BKN220,0.00,VWS V14.00,2013-05-05 20:30:00,
2013-05-05 16:36:00,73.8,44.5,29.97,ESE,106,0.0,13.0,35,0.00,,BKN220,0.00,VWS V14.00,2013-05-05 20:36:00,
2013-05-05 16:41:00,74.0,43.1,29.97,SE,128,5.0,13.0,33,0.00,,BKN220,0.00,VWS V14.00,2013-05-05 20:41:00,
2013-05-05 16:46:00,74.0,44.6,29.96,South,177,0.0,13.0,35,0.00,,BKN220,0.00,VWS V14.00,2013-05-05 20:46:00,
2013-05-05 16:51:00,74.0,46.1,29.96,SE,124,5.0,13.0,37,0.00,,BKN220,0.00,VWS V14.00,2013-05-05 20:51:00,
2013-05-05 16:56:00,73.8,45.2,29.96,NE,46,1.0,15.0,36,0.00,,BKN220,0.00,VWS V14.00,2013-05-05 20:56:00,
2013-05-05 17:00:00,74.3,48.4,29.97,East,96,7.0,11.0,40,0.00,,OVC120,0.00,VWS V14.00,2013-05-05 21:00:00,
2013-05-05 17:01:00,73.8,45.2,29.96,ESE,107,3.0,8.0,36,0.00,,BKN250,0.00,VWS V14.00,2013-05-05 21:01:00,
2013-05-05 17:06:00,74.0,45.4,29.96,SSE,165,0.0,8.0,36,0.00,,BKN250,0.00,VWS V14.00,2013-05-05 21:06:00,
2013-05-05 17:11:00,74.1,44.0,29.96,SSW,198,8.0,10.0,34,0.00,,BKN250,0.00,VWS V14.00,2013-05-05 21:11:00,
2013-05-05 17:16:00,73.8,44.5,29.96,ESE,122,7.0,11.0,35,0.00,,BKN250,0.00,VWS V14.00,2013-05-05 21:16:00,
2013-05-05 17:21:00,73.6,45.0,29.96,East,99,0.0,14.0,36,0.00,,BKN250,0.00,VWS V14.00,2013-05-05 21:21:00,
2013-05-05 17:27:00,73.3,44.0,29.96,ENE,68,0.0,14.0,35,0.00,,BKN250,0.00,VWS V14.00,2013-05-05 21:27:00,
2013-05-05 17:30:00,74.2,46.3,29.97,NE,49,7.0,13.0,37,0.00,,OVC120,0.00,VWS V14.00,2013-05-05 21:30:00,
2013-05-05 17:32:00,73.2,43.9,29.95,East,79,5.0,10.0,35,0.00,,BKN250,0.00,VWS V14.00,2013-05-05 21:32:00,
2013-05-05 17:37:00,73.3,43.3,29.95,ENE,74,3.0,10.0,34,0.00,,BKN250,0.00,VWS V14.00,2013-05-05 21:37:00,
2013-05-05 17:42:00,73.3,43.3,29.95,SE,125,9.0,13.0,34,0.00,,BKN250,0.00,VWS V14.00,2013-05-05 21:42:00,
2013-05-05 17:47:00,73.5,43.4,29.95,SSE,148,0.0,14.0,34,0.00,,BKN250,0.00,VWS V14.00,2013-05-05 21:47:00,
2013-05-05 17:52:00,73.5,42.7,29.95,SSE,149,7.0,14.0,33,0.00,,BKN250,0.00,VWS V14.00,2013-05-05 21:52:00,
2013-05-05 17:57:00,73.3,43.3,29.95,East,88,2.0,14.0,34,0.00,,BKN250,0.00,VWS V14.00,2013-05-05 21:57:00,
2013-05-05 18:00:00,73.8,45.9,29.96,South,173,4.0,15.0,37,0.00,,OVC120,0.00,VWS V14.00,2013-05-05 22:00:00,
2013-05-05 18:02:00,73.5,42.7,29.95,East,84,7.0,8.0,33,0.00,,BKN250,0.00,VWS V14.00,2013-05-05 22:02:00,
2013-05-05 18:07:00,73.2,40.8,29.95,SE,143,0.0,10.0,31,0.00,,BKN250,0.00,VWS V14.00,2013-05-05 22:07:00,
2013-05-05 18:12:00,73.1,42.3,29.95,SSW,197,4.0,10.0,33,0.00,,BKN250,0.00,VWS V14.00,2013-05-05 22:12:00,
2013-05-05 18:18:00,73.1,40.7,29.95,SE,134,0.0,10.0,31,0.00,,BKN250,0.00,VWS V14.00,2013-05-05 22:18:00,
2013-05-05 18:23:00,73.2,40.8,29.95,ENE,73,0.0,10.0,31,0.00,,BKN250,0.00,VWS V14.00,2013-05-05 22:23:00,
2013-05-05 18:28:00,73.3,39.2,29.95,East,88,2.0,11.0,29,0.00,,BKN250,0.00,VWS V14.00,2013-05-05 22:28:00,
2013-05-05 18:30:00,73.3,44.0,29.96,ESE,116,3.0,14.0,35,0.00,,OVC120,0.00,VWS V14.00,2013-05-05 22:30:00,
2013-05-05 18:33:00,73.3,40.0,29.95,ENE,61,2.0,6.0,30,0.00,,BKN250,0.00,VWS V14.00,2013-05-05 22:33:00,
2013-05-05 18:38:00,73.3,40.0,29.95,East,83,6.0,11.0,30,0.00,,BKN250,0.00,VWS V14.00,2013-05-05 22:38:00,
2013-05-05 18:43:00,73.1,38.1,29.96,East,86,1.0,13.0,28,0.00,,BKN250,0.00,VWS V14.00,2013-05-05 22:43:00,
2013-05-05 18:48:00,73.2,39.1,29.95,East,95,0.0,13.0,29,0.00,,BKN250,0.00,VWS V14.00,2013-05-05 22:48:00,
2013-05-05 18:53:00,73.4,38.3,29.95,ESE,122,0.0,13.0,28,0.00,,BKN250,0.00,VWS V14.00,2013-05-05 22:53:00,
2013-05-05 18:58:00,73.3,38.3,29.95,NE,45,6.0,13.0,28,0.00,,BKN250,0.00,VWS V14.00,2013-05-05 22:58:00,
2013-05-05 19:00:00,73.4,43.3,29.95,East,88,6.0,14.0,34,0.00,,OVC120,0.00,VWS V14.00,2013-05-05 23:00:00,
2013-05-05 19:04:00,73.0,38.0,29.95,East,97,3.0,8.0,28,0.00,,BKN250,0.00,VWS V14.00,2013-05-05 23:04:00,
2013-05-05 19:09:00,72.9,37.9,29.96,SE,137,0.0,13.0,28,0.00,,BKN250,0.00,VWS V14.00,2013-05-05 23:09:00,
2013-05-05 19:14:00,72.9,37.9,29.96,ESE,113,7.0,13.0,28,0.00,,BKN250,0.00,VWS V14.00,2013-05-05 23:14:00,
2013-05-05 19:19:00,72.4,37.5,29.96,SE,144,3.0,13.0,28,0.00,,BKN250,0.00,VWS V14.00,2013-05-05 23:19:00,
2013-05-05 19:24:00,71.7,36.9,29.96,ESE,105,0.0,13.0,28,0.00,,BKN250,0.00,VWS V14.00,2013-05-05 23:24:00,
2013-05-05 19:29:00,71.2,37.3,29.96,SE,139,2.0,13.0,29,0.00,,BKN250,0.00,VWS V14.00,2013-05-05 23:29:00,
2013-05-05 19:30:00,73.3,39.2,29.95,ESE,109,1.0,11.0,29,0.00,,OVC120,0.00,VWS V14.00,2013-05-05 23:30:00,
2013-05-05 19:34:00,70.8,36.1,29.96,East,86,0.0,11.0,28,0.00,,BKN250,0.00,VWS V14.00,2013-05-05 23:34:00,
2013-05-05 19:39:00,70.4,34.9,29.97,ENE,59,5.0,11.0,27,0.00,,BKN250,0.00,VWS V14.00,2013-05-05 23:39:00,
2013-05-05 19:44:00,70.1,35.5,29.97,SE,140,0.0,11.0,28,0.00,,BKN250,0.00,VWS V14.00,2013-05-05 23:44:00,
2013-05-05 19:49:00,69.8,35.3,29.97,East,80,0.0,11.0,28,0.00,,BKN250,0.00,VWS V14.00,2013-05-05 23:49:00,
2013-05-05 19:54:00,69.5,35.9,29.97,ENE,78,0.0,11.0,29,0.00,,BKN250,0.00,VWS V14.00,2013-05-05 23:54:00,
2013-05-05 19:59:00,69.4,35.8,29.97,East,101,0.0,11.0,29,0.00,,BKN250,0.00,VWS V14.00,2013-05-05 23:59:00,
2013-05-05 20:00:00,73.2,39.9,29.95,East,98,0.0,13.0,30,0.00,,OVC120,0.00,VWS V14.00,2013-05-06 00:00:00,
2013-05-05 20:04:00,69.2,36.5,29.97,East,80,3.0,8.0,30,0.00,,BKN240,0.00,VWS V14.00,2013-05-06 00:04:00,
2013-05-05 20:09:00,68.9,36.2,29.97,East,86,0.0,8.0,30,0.00,,BKN240,0.00,VWS V14.00,2013-05-06 00:09:00,
2013-05-05 20:15:00,68.7,36.0,29.97,ENE,59,2.0,8.0,30,0.00,,BKN240,0.00,VWS V14.00,2013-05-06 00:15:00,
2013-05-05 20:20:00,68.5,37.5,29.97,West,275,0.0,8.0,32,0.00,,BKN240,0.00,VWS V14.00,2013-05-06 00:20:00,
2013-05-05 20:25:00,68.0,37.1,29.97,ENE,69,0.0,8.0,32,0.00,,BKN240,0.00,VWS V14.00,2013-05-06 00:25:00,
2013-05-05 20:30:00,67.7,36.8,29.97,ENE,69,0.0,8.0,32,0.00,,BKN240,0.00,VWS V14.00,2013-05-06 00:30:00,
2013-05-05 20:35:00,67.3,36.5,29.97,ENE,69,0.0,2.0,32,0.00,,BKN240,0.00,VWS V14.00,2013-05-06 00:35:00,
2013-05-05 20:40:00,66.9,36.9,29.97,ENE,68,0.0,2.0,33,0.00,,BKN240,0.00,VWS V14.00,2013-05-06 00:40:00,
2013-05-05 20:45:00,66.5,37.3,29.98,ENE,69,0.0,2.0,34,0.00,,BKN240,0.00,VWS V14.00,2013-05-06 00:45:00,
2013-05-05 20:50:00,66.1,36.9,29.98,ENE,74,0.0,2.0,34,0.00,,BKN240,0.00,VWS V14.00,2013-05-06 00:50:00,
2013-05-05 20:55:00,65.8,37.4,29.98,ENE,74,0.0,2.0,35,0.00,,BKN240,0.00,VWS V14.00,2013-05-06 00:55:00,
2013-05-05 21:00:00,65.4,37.8,29.98,ENE,74,0.0,0.0,36,0.00,,BKN240,0.00,VWS V14.00,2013-05-06 01:00:00,
2013-05-05 21:05:00,65.1,36.8,29.98,ENE,74,0.0,1.0,35,0.00,,BKN240,0.00,VWS V14.00,2013-05-06 01:05:00,
2013-05-05 21:10:00,64.7,37.2,29.98,ENE,74,0.0,1.0,36,0.00,,BKN240,0.00,VWS V14.00,2013-05-06 01:10:00,
2013-05-05 21:15:00,64.4,36.9,29.98,ENE,74,0.0,1.0,36,0.00,,BKN240,0.00,VWS V14.00,2013-05-06 01:15:00,
2013-05-05 21:21:00,64.2,37.4,29.98,ENE,74,0.0,1.0,37,0.00,,BKN240,0.00,VWS V14.00,2013-05-06 01:21:00,
2013-05-05 21:26:00,64.0,37.9,29.98,ENE,74,0.0,1.0,38,0.00,,BKN240,0.00,VWS V14.00,2013-05-06 01:26:00,
2013-05-05 21:30:00,67.6,36.7,29.97,ENE,69,0.0,8.0,32,0.00,,OVC120,0.00,VWS V14.00,2013-05-06 01:30:00,
2013-05-05 21:31:00,63.8,37.0,29.99,ENE,74,0.0,0.0,37,0.00,,BKN240,0.00,VWS V14.00,2013-05-06 01:31:00,
2013-05-05 21:36:00,63.6,37.5,29.99,ENE,74,0.0,1.0,38,0.00,,BKN240,0.00,VWS V14.00,2013-05-06 01:36:00,
2013-05-05 21:41:00,63.4,36.7,29.99,ENE,64,1.0,4.0,37,0.00,,BKN240,0.00,VWS V14.00,2013-05-06 01:41:00,
2013-05-05 21:46:00,63.4,36.7,29.99,ENE,66,0.0,4.0,37,0.00,,BKN240,0.00,VWS V14.00,2013-05-06 01:46:00,
2013-05-05 21:51:00,63.4,36.0,29.99,ENE,65,0.0,4.0,36,0.00,,BKN240,0.00,VWS V14.00,2013-05-06 01:51:00,
2013-05-05 21:56:00,63.3,36.6,29.99,ENE,66,0.0,4.0,37,0.00,,BKN240,0.00,VWS V14.00,2013-05-06 01:56:00,
2013-05-05 22:00:00,65.5,37.2,29.98,ENE,74,0.0,2.0,35,0.00,,OVC120,0.00,VWS V14.00,2013-05-06 02:00:00,
2013-05-05 22:01:00,63.1,37.1,30.00,ENE,66,0.0,0.0,38,0.00,,BKN240,0.00,VWS V14.00,2013-05-06 02:01:00,
2013-05-05 22:06:00,62.9,36.2,30.00,ENE,66,0.0,0.0,37,0.00,,BKN240,0.00,VWS V14.00,2013-05-06 02:06:00,
2013-05-05 22:11:00,62.6,36.7,30.00,ENE,66,0.0,0.0,38,0.00,,BKN240,0.00,VWS V14.00,2013-05-06 02:11:00,
2013-05-05 22:16:00,62.3,36.4,30.00,ENE,66,0.0,1.0,38,0.00,,BKN240,0.00,VWS V14.00,2013-05-06 02:16:00,
2013-05-05 22:22:00,62.0,36.1,30.00,ENE,66,0.0,1.0,38,0.00,,BKN240,0.00,VWS V14.00,2013-05-06 02:22:00,
2013-05-05 22:27:00,61.7,35.9,30.00,ENE,66,0.0,1.0,38,0.00,,BKN240,0.00,VWS V14.00,2013-05-06 02:27:00,
2013-05-05 22:30:00,63.8,37.0,29.99,ENE,74,0.0,1.0,37,0.00,,OVC120,0.00,VWS V14.00,2013-05-06 02:30:00,
2013-05-05 22:32:00,61.4,35.6,30.00,ENE,66,0.0,0.0,38,0.00,,BKN240,0.00,VWS V14.00,2013-05-06 02:32:00,
2013-05-05 22:37:00,61.2,35.4,30.00,ENE,66,0.0,0.0,38,0.00,,BKN240,0.00,VWS V14.00,2013-05-06 02:37:00,
2013-05-05 22:42:00,61.0,35.9,30.00,ENE,65,0.0,1.0,39,0.00,,BKN240,0.00,VWS V14.00,2013-05-06 02:42:00,
2013-05-05 22:47:00,60.9,36.4,30.00,ENE,65,0.0,1.0,40,0.00,,BKN240,0.00,VWS V14.00,2013-05-06 02:47:00,
2013-05-05 22:52:00,60.8,36.3,30.00,ENE,66,0.0,1.0,40,0.00,,BKN240,0.00,VWS V14.00,2013-05-06 02:52:00,
2013-05-05 22:57:00,60.5,36.7,30.00,ENE,66,0.0,1.0,41,0.00,,BKN240,0.00,VWS V14.00,2013-05-06 02:57:00,
2013-05-05 23:00:00,63.2,36.5,29.99,ENE,66,0.0,4.0,37,0.00,,OVC120,0.00,VWS V14.00,2013-05-06 03:00:00,
2013-05-05 23:02:00,60.3,37.7,30.00,ENE,66,0.0,1.0,43,0.00,,BKN240,0.00,VWS V14.00,2013-05-06 03:02:00,
2013-05-05 23:07:00,59.9,38.0,30.00,ENE,66,0.0,1.0,44,0.00,,BKN240,0.00,VWS V14.00,2013-05-06 03:07:00,
2013-05-05 23:12:00,59.4,37.5,30.00,ENE,66,0.0,1.0,44,0.00,,BKN240,0.00,VWS V14.00,2013-05-06 03:12:00,
2013-05-05 23:17:00,59.0,37.1,30.00,ENE,66,0.0,1.0,44,0.00,,BKN240,0.00,VWS V14.00,2013-05-06 03:17:00,
2013-05-05 23:22:00,58.4,37.2,30.00,ENE,66,0.0,1.0,45,0.00,,BKN240,0.00,VWS V14.00,2013-05-06 03:22:00,
2013-05-05 23:28:00,58.2,37.5,30.00,ENE,66,0.0,1.0,46,0.00,,BKN240,0.00,VWS V14.00,2013-05-06 03:28:00,
2013-05-05 23:30:00,61.6,35.8,30.00,ENE,65,0.0,1.0,38,0.00,,OVC120,0.00,VWS V14.00,2013-05-06 03:30:00,
2013-05-05 23:33:00,57.8,41.3,30.00,ENE,66,0.0,1.0,54,0.00,,BKN240,0.00,VWS V14.00,2013-05-06 03:33:00,
2013-05-05 23:38:00,56.5,40.5,30.00,ENE,65,0.0,1.0,55,0.00,,BKN240,0.00,VWS V14.00,2013-05-06 03:38:00,
2013-05-05 23:43:00,55.3,41.7,30.00,ENE,66,0.0,1.0,60,0.00,,BKN240,0.00,VWS V14.00,2013-05-06 03:43:00,
2013-05-05 23:48:00,54.3,42.0,30.00,ENE,66,0.0,1.0,63,0.00,,BKN240,0.00,VWS V14.00,2013-05-06 03:48:00,
2013-05-05 23:53:00,53.8,40.7,30.00,ENE,65,0.0,1.0,61,0.00,,BKN240,0.00,VWS V14.00,2013-05-06 03:53:00,
2013-05-05 23:58:00,53.5,40.4,30.00,ENE,66,0.0,1.0,61,0.00,,BKN240,0.00,VWS V14.00,2013-05-06 03:58:00,